User: anonymous   Login
Location: ??
(35.5052°N, 139.7262°E)
Time: 00:26:32
(UTC+00:00)
Language:

FENGYUN 1C DEB - Orbit

View from above orbital plane
View from above orbital plane
View from above satellite
View from above satellite

Ground track
Ground track

The orbit data is extracted from the following two-line orbital elements,

1 46438U 99025EYT 22220.36439757  .00002507  00000-0  12643-2 0  9994
2 46438  99.0533 273.8283 0087929 106.9289 254.1546 14.15239954449220
Epoch (UTC): 08 August 2022 08:44:43
Eccentricity: 0.0087929
inclination: 99.0533°
perigee height: 778 km
apogee height: 905 km
right ascension of ascending node: 273.8283°
argument of perigee: 106.9289°
revolutions per day: 14.15239954
mean anomaly at epoch: 254.1546°
orbit number at epoch: 44922

The dashed part of the orbit path shows where the satellite is in the earth's shadow,  

DLR